• In Netherlands
  • List of Countries
  • For 7 days
  • Water Temperature
  • Satellite Maps
  • Weather Map
  • Weather Widgets
  • user-avatar
    Login

    Hourly Weather San Juan

    Today, 22 January, Sunday

    Time Temperature Precipitation Wind Pressure Humidity
    00:00 +31°C° 0.1 mm 3 mps 705 mmHg 35%
    01:00 +30°C° 0.1 mm 3 mps 705 mmHg 36%
    02:00 +30°C° 0.1 mm 3 mps 705 mmHg 38%
    03:00 +29°C° 0.1 mm 2 mps 704 mmHg 40%
    04:00 +28°C° 0.1 mm 2 mps 704 mmHg 42%
    05:00 +30°C° 0 mm 2 mps 705 mmHg 38%
    06:00 +32°C° 0 mm 2 mps 705 mmHg 34%
    07:00 +34°C° 0 mm 2 mps 705 mmHg 30%
    08:00 +36°C° 0.1 mm 2 mps 705 mmHg 28%
    09:00 +37°C° 0.1 mm 2 mps 705 mmHg 25%
    10:00 +37°C° 0.1 mm 1 mps 705 mmHg 22%
    11:00 +39°C° 0.2 mm 2 mps 705 mmHg 21%
    12:00 +40°C° 0.2 mm 2 mps 704 mmHg 19%
    13:00 +42°C° 0.2 mm 3 mps 704 mmHg 18%
    14:00 +42°C° 0.3 mm 3 mps 704 mmHg 17%
    15:00 +42°C° 0.3 mm 3 mps 703 mmHg 17%
    16:00 +42°C° 0.3 mm 3 mps 703 mmHg 17%
    17:00 +39°C° 0.4 mm 3 mps 703 mmHg 19%
    18:00 +38°C° 0.4 mm 3 mps 704 mmHg 22%
    19:00 +36°C° 0.4 mm 3 mps 704 mmHg 24%
    20:00 +35°C° 0.9 mm 3 mps 705 mmHg 29%
    21:00 +34°C° 0.9 mm 3 mps 705 mmHg 33%
    22:00 +33°C° 0.9 mm 4 mps 706 mmHg 37%
    23:00 +31°C° 0.5 mm 3 mps 706 mmHg 41%

    Tomorrow, 23 January, Monday

    Time Temperature Precipitation Wind Pressure Humidity
    00:00 +30°C° 0.5 mm 3 mps 706 mmHg 44%
    01:00 +29°C° 0.5 mm 3 mps 705 mmHg 47%
    02:00 +28°C° 0.2 mm 3 mps 705 mmHg 49%
    03:00 +28°C° 0.2 mm 2 mps 705 mmHg 52%
    04:00 +27°C° 0.2 mm 2 mps 705 mmHg 54%
    05:00 +28°C° 0.1 mm 2 mps 705 mmHg 51%
    06:00 +29°C° 0.1 mm 2 mps 705 mmHg 48%
    07:00 +30°C° 0.1 mm 1 mps 706 mmHg 44%
    08:00 +31°C° 0.1 mm 2 mps 705 mmHg 41%
    09:00 +32°C° 0.1 mm 2 mps 705 mmHg 38%
    10:00 +35°C° 0.1 mm 2 mps 705 mmHg 35%
    11:00 +36°C° 0.3 mm 2 mps 704 mmHg 33%
    12:00 +37°C° 0.3 mm 2 mps 704 mmHg 30%
    13:00 +38°C° 0.3 mm 2 mps 703 mmHg 28%
    14:00 +38°C° 0.4 mm 2 mps 702 mmHg 27%
    15:00 +38°C° 0.4 mm 3 mps 702 mmHg 26%
    16:00 +39°C° 0.4 mm 3 mps 701 mmHg 24%
    17:00 +37°C° 0.3 mm 3 mps 702 mmHg 27%
    18:00 +36°C° 0.3 mm 3 mps 702 mmHg 29%
    19:00 +34°C° 0.3 mm 2 mps 702 mmHg 31%
    20:00 +32°C° 0.2 mm 2 mps 702 mmHg 33%
    21:00 +32°C° 0.2 mm 2 mps 702 mmHg 34%
    22:00 +31°C° 0.2 mm 2 mps 703 mmHg 36%
    23:00 +31°C° 0.1 mm 2 mps 702 mmHg 37%

    Day after tomorrow, 24 January, Tuesday

    Time Temperature Precipitation Wind Pressure Humidity
    00:00 +30°C° 0.1 mm 2 mps 702 mmHg 38%
    01:00 +29°C° 0.1 mm 2 mps 702 mmHg 39%
    02:00 +29°C° 0.1 mm 4 mps 702 mmHg 42%
    03:00 +28°C° 0.1 mm 6 mps 703 mmHg 45%
    04:00 +28°C° 0.1 mm 8 mps 703 mmHg 48%
    05:00 +27°C° 0.2 mm 8 mps 704 mmHg 48%
    06:00 +26°C° 0.2 mm 8 mps 705 mmHg 48%
    07:00 +24°C° 0.2 mm 9 mps 706 mmHg 47%
    08:00 +26°C° 0.1 mm 9 mps 707 mmHg 41%
    09:00 +27°C° 0.1 mm 8 mps 707 mmHg 35%
    10:00 +28°C° 0.1 mm 8 mps 707 mmHg 29%
    11:00 +29°C° 0 mm 8 mps 707 mmHg 27%
    12:00 +30°C° 0 mm 7 mps 706 mmHg 26%
    13:00 +32°C° 0 mm 7 mps 706 mmHg 24%
    14:00 +32°C° 0 mm 6 mps 706 mmHg 24%
    15:00 +32°C° 0 mm 6 mps 706 mmHg 24%
    16:00 +32°C° 0 mm 6 mps 706 mmHg 24%
    17:00 +30°C° 0 mm 5 mps 707 mmHg 26%
    18:00 +29°C° 0 mm 5 mps 708 mmHg 29%
    19:00 +27°C° 0 mm 4 mps 708 mmHg 31%
    20:00 +27°C° 0 mm 4 mps 709 mmHg 33%
    21:00 +26°C° 0 mm 3 mps 710 mmHg 35%
    22:00 +25°C° 0 mm 3 mps 710 mmHg 36%
    23:00 +24°C° 0 mm 2 mps 710 mmHg 38%

    25 January, Wednesday

    Time Temperature Precipitation Wind Pressure Humidity
    00:00 +24°C° 0 mm 2 mps 710 mmHg 40%
    01:00 +23°C° 0 mm 1 mps 709 mmHg 42%
    02:00 +22°C° 0 mm 1 mps 709 mmHg 45%
    03:00 +22°C° 0 mm 1 mps 709 mmHg 48%
    04:00 +19°C° 0 mm 0 mps 709 mmHg 51%
    05:00 +23°C° 0 mm 1 mps 710 mmHg 46%
    06:00 +24°C° 0 mm 1 mps 710 mmHg 41%
    07:00 +25°C° 0 mm 1 mps 711 mmHg 36%
    08:00 +27°C° 0 mm 1 mps 711 mmHg 33%
    09:00 +28°C° 0 mm 2 mps 711 mmHg 31%
    10:00 +29°C° 0 mm 2 mps 710 mmHg 28%
    11:00 +30°C° 0 mm 2 mps 710 mmHg 26%
    12:00 +31°C° 0 mm 2 mps 709 mmHg 24%
    13:00 +34°C° 0 mm 2 mps 708 mmHg 22%
    14:00 +34°C° 0 mm 2 mps 708 mmHg 21%
    15:00 +34°C° 0 mm 3 mps 708 mmHg 21%
    16:00 +34°C° 0 mm 3 mps 707 mmHg 20%
    17:00 +33°C° 0 mm 3 mps 707 mmHg 22%
    18:00 +30°C° 0 mm 2 mps 708 mmHg 23%
    19:00 +29°C° 0 mm 2 mps 708 mmHg 25%
    20:00 +28°C° 0 mm 2 mps 709 mmHg 26%
    21:00 +27°C° 0 mm 2 mps 709 mmHg 27%
    22:00 +26°C° 0 mm 2 mps 709 mmHg 28%
    23:00 +26°C° 0 mm 2 mps 709 mmHg 30%

    26 January, Thursday

    Time Temperature Precipitation Wind Pressure Humidity
    00:00 +25°C° 0 mm 2 mps 709 mmHg 33%
    01:00 +24°C° 0 mm 2 mps 709 mmHg 35%
    02:00 +23°C° 0 mm 1 mps 708 mmHg 38%
    03:00 +23°C° 0 mm 1 mps 708 mmHg 41%
    04:00 +22°C° 0 mm 1 mps 708 mmHg 44%
    05:00 +24°C° 0 mm 1 mps 709 mmHg 38%
    06:00 +26°C° 0 mm 1 mps 710 mmHg 33%
    07:00 +28°C° 0 mm 1 mps 710 mmHg 28%
    08:00 +29°C° 0 mm 1 mps 710 mmHg 25%
    09:00 +31°C° 0 mm 1 mps 710 mmHg 22%
    10:00 +33°C° 0 mm 1 mps 710 mmHg 20%
    11:00 +35°C° 0 mm 2 mps 709 mmHg 18%
    12:00 +36°C° 0 mm 2 mps 709 mmHg 16%
    13:00 +37°C° 0 mm 2 mps 708 mmHg 14%
    14:00 +37°C° 0 mm 2 mps 708 mmHg 14%
    15:00 +38°C° 0 mm 2 mps 708 mmHg 13%
    16:00 +38°C° 0 mm 2 mps 707 mmHg 13%
    17:00 +36°C° 0 mm 2 mps 707 mmHg 17%
    18:00 +34°C° 0 mm 2 mps 707 mmHg 21%
    19:00 +30°C° 0 mm 2 mps 708 mmHg 25%
    20:00 +29°C° 0 mm 1 mps 708 mmHg 26%
    21:00 +28°C° 0 mm 1 mps 708 mmHg 27%
    22:00 +28°C° 0 mm 1 mps 708 mmHg 29%
    23:00 +27°C° 0 mm 2 mps 708 mmHg 27%

    27 January, Friday

    Time Temperature Precipitation Wind Pressure Humidity
    00:00 +27°C° 0 mm 2 mps 708 mmHg 26%
    01:00 +27°C° 0 mm 2 mps 708 mmHg 25%
    02:00 +27°C° 0 mm 2 mps 707 mmHg 26%
    03:00 +26°C° 0 mm 2 mps 707 mmHg 26%
    04:00 +26°C° 0 mm 2 mps 707 mmHg 27%
    05:00 +27°C° 0 mm 3 mps 708 mmHg 25%
    06:00 +29°C° 0 mm 3 mps 708 mmHg 22%
    07:00 +31°C° 0 mm 3 mps 709 mmHg 20%
    08:00 +34°C° 0 mm 3 mps 708 mmHg 17%
    09:00 +36°C° 0 mm 3 mps 708 mmHg 14%
    10:00 +37°C° 0 mm 3 mps 708 mmHg 12%
    11:00 +38°C° 0 mm 3 mps 707 mmHg 11%
    12:00 +40°C° 0 mm 3 mps 706 mmHg 10%
    13:00 +42°C° 0 mm 3 mps 706 mmHg 9%
    14:00 +42°C° 0 mm 3 mps 705 mmHg 8%
    15:00 +42°C° 0 mm 3 mps 705 mmHg 8%
    16:00 +42°C° 0 mm 3 mps 705 mmHg 8%
    17:00 +39°C° 0 mm 3 mps 705 mmHg 10%
    18:00 +37°C° 0 mm 3 mps 705 mmHg 11%
    19:00 +34°C° 0 mm 3 mps 705 mmHg 13%
    20:00 +33°C° 0 mm 3 mps 705 mmHg 15%
    21:00 +31°C° 0 mm 3 mps 705 mmHg 17%
    22:00 +31°C° 0 mm 3 mps 705 mmHg 18%
    23:00 +30°C° 0 mm 3 mps 705 mmHg 19%
    Show more